SCP
0 0 0 0 0 0 0 0 0 0 0 0 0 0 0 0 -0 0 -0 0 0 0 0 0 0 0 0 0 0 0 0 0 0 0 0 0 0 0
0 0 0 0 0 0 0 0 0 0 0 0 0 0 0 0 -0 0 0 0 0 0 0 0 0 0 0 0 0 0 0 0 0 0 0 0 0 0
0 0 0 0 0 0 0 0 0 0 0 0 0 0 0 -0 0 0 0 0 0 0 0 0 0 0 0 0 0 0 0 0 0 0 0 0 0 0
0 0 0 0 0 0 0 0 0 0 0 0 0 0 0 -0 -0 0 0 0 0 0 0 0 0 0 0 0 0 0 0 0 0 0 0 0 0 0
0 0 0 0 0 0 0 0 0 0 0 0 0 0 0 0 -0 0 0 0 0 0 0 0 0 0 0 0 0 0 0 0 0 0 0 0 0 0
0 0 0 0 0 0 0 0 0 0 0 0 0 0 0 0 0 0 0 0 0 0 0 0 0 0 0 0 0 0 0 0 0 0 0 0 0 0
0 0 0 0 0 0 0 0 0 0 0 0 0 0 0 0 0 -0 0 0 0 0 0 0 0 0 0 0 0 0 0 0 0 0 0 0 0 0
0 0 0 0 0 0 0 -0 -0 -0 0 0 0 -0 0 0 0 0 0 0 0 0 0 0 0 0 0 0 0 0 0 0 0 0 0 0 0 0
0 0 0 0 0 0 0 0 -0 -0 0 -0 -0 -0 -0 0 0 0 0 0 0 0 0 0 0 0 0 0 0 0 0 0 0 0 0 0 0 0
0 0 0 0 0 0 0 0 0 -0 0 0 0 -0 -0 0 0 0 0 0 0 0 0 0 0 0 0 0 0 0 0 0 0 0 0 0 0 0
0 0 0 0 0 0 0 0 0 0 -0 -0 -0 -0 0 -0 0 0 0 0 0 0 0 0 0 0 0 0 0 0 0 0 0 0 0 0 0 0
0 0 0 -0 0 0 0 0 0 0 0 -0 0 -0 -0 -0 0 0 0 0 0 0 0 0 0 0 0 0 0 0 0 0 0 0 0 0 0 0
0 0 0 0 0 -0 0 0 0 0 0 0 0 0 -0 0 0 0 0 0 0 0 0 0 0 0 0 0 0 0 0 0 0 0 0 0 0 0
0 0 0 0 0 0 0 0 0 0 0 0 -0 -0 -0 0 -0 -0 0 0 0 0 0 0 0 0 0 0 0 0 0 0 0 0 0 0 0 0
0 0 0 0 0 0 0 0 0 0 0 0 0 0 0 0 -0 -0 -0 -0 -0 0 0 0 0 0 0 0 0 0 0 0 0 0 0 0 0 0
0 0 0 0 0 0 0 0 0 0 0 0 0 0 0 0 0 0 0 0 -0 -0 -0 -0 -0 0 0 0 0 0 0 0 0 0 0 0 0 0
0 0 0 0 0 0 0 0 0 0 0 -0 0 0 0 0 0 0 0 0 0 0 0 0 0 0 0 0 0 0 0 0 0 0 0 0 0 0
0 0 0 0 0 0 0 0 0 0 0 0 0 0 0 0 0 0 0 0 0 0 0 0 0 0 0 0 0 0 0 0 0 0 0 0 0 0
0 0 0 0 0 0 0 0 0 0 0 0 0 0 0 0 0 0 0 0 0 0 0 0 0 0 0 0 0 0 0 0 0 0 0 0 0 0
0 0 0 0 0 0 0 0 0 0 0 0 0 0 0 0 0 0 0 0 0 0 0 0 0 0 0 0 0 0 0 0 0 0 0 0 0 0
0 0 0 0 0 0 0 0 0 0 0 0 0 0 0 0 0 0 0 0 0 0 0 0 0 0 0 0 0 0 0 0 0 0 0 0 0 0
0 0 0 0 0 0 0 0 0 0 0 0 0 0 0 0 0 0 0 0 0 0 0 0 0 0 0 0 0 0 0 0 0 0 0 0 0 0
0 0 0 0 0 0 0 0 0 0 0 0 0 0 0 0 0 0 0 0 0 0 0 0 0 0 0 0 0 0 0 0 0 0 0 0 0 0
Wind_Speed_500mb
59 61 64 72 72 67 66 71 65 65 65 54 57 76 85 70 81 75 73 81 102 105 110 122 113 121 133 142 104 109 91 104 127 113 114 101 106 107
56 60 63 63 67 68 70 67 73 75 80 63 63 47 68 71 53 61 73 88 68 82 89 90 107 108 112 123 123 137 112 118 121 116 130 119 112 115
57 61 61 69 73 72 64 59 62 60 77 75 75 73 50 77 76 62 56 57 61 73 64 84 99 101 114 112 128 129 117 133 130 130 140 128 119 123
55 58 62 61 62 64 60 68 65 66 66 66 60 80 80 69 71 69 60 59 71 70 59 52 61 105 110 107 109 113 117 149 134 115 137 136 129 113
51 53 49 50 53 57 59 59 64 65 68 77 79 64 73 58 68 59 38 57 63 61 68 69 71 74 61 89 86 108 114 109 115 130 142 139 120 114
40 38 38 40 50 57 55 56 60 64 60 74 53 67 50 54 62 79 59 26 37 37 32 34 39 53 63 88 95 104 94 103 112 118 104 120 127 125
29 28 27 34 42 52 48 50 57 48 49 51 44 48 43 39 49 48 55 58 53 30 33 26 30 38 44 49 58 48 84 74 79 81 111 121 116 107
31 33 32 30 33 41 46 47 45 45 50 34 47 49 57 46 43 41 53 40 28 22 16 19 24 30 25 22 26 27 43 55 65 95 125 117 97 69
26 30 32 33 32 34 37 37 36 38 46 55 55 54 60 59 47 45 56 49 47 36 27 17 18 22 25 32 39 47 62 75 85 79 62 50 40 35
28 28 27 26 21 24 29 32 35 38 42 50 53 52 53 48 50 45 58 48 33 33 35 37 43 48 51 52 41 42 56 42 38 35 31 27 27 31
30 27 29 28 22 14 20 27 33 34 34 35 41 44 42 48 48 43 53 53 41 46 45 52 57 56 50 48 45 33 37 36 30 25 24 27 29 29
39 34 36 36 28 21 12 11 22 24 25 27 37 45 50 55 44 38 44 59 54 42 49 52 63 54 32 37 39 36 33 29 24 20 21 24 27 26
47 47 44 39 32 22 14 10 14 15 16 16 18 22 27 28 29 28 37 42 44 28 56 49 66 48 32 50 40 36 29 23 23 24 25 20 15 19
44 44 43 39 33 27 22 18 12 8 4 10 16 21 21 21 21 23 24 29 33 12 52 44 60 49 33 45 41 37 32 27 23 22 20 26 30 28
42 42 39 37 35 32 31 25 18 13 11 13 18 23 22 23 22 23 26 26 19 20 37 33 31 46 29 26 29 24 41 35 28 27 28 28 27 24
33 34 35 34 34 35 33 32 29 25 19 21 25 28 28 27 24 21 27 28 24 29 28 29 27 37 28 22 21 20 32 21 32 30 31 30 30 31
27 26 24 26 28 31 31 32 33 31 28 29 28 30 32 31 32 30 25 20 18 27 34 34 28 30 26 22 19 20 23 23 19 28 29 29 29 30
16 16 17 18 19 22 24 24 24 24 26 25 25 26 28 27 29 27 22 20 25 32 30 30 31 30 26 20 17 17 21 21 21 24 26 27 29 30
13 14 15 12 11 11 12 13 13 14 16 17 15 15 14 15 14 14 16 16 18 19 18 16 17 16 16 17 16 20 21 21 22 23 23 24 26 29
15 14 12 11 11 10 8 6 6 5 5 5 5 4 4 6 7 8 9 9 11 15 17 18 18 17 17 16 16 16 18 20 19 18 20 24 28 36
18 17 16 16 15 13 12 11 11 9 7 6 6 6 7 7 7 7 7 7 8 9 11 14 16 16 17 18 17 17 17 18 21 24 27 30 33 38
23 25 24 22 20 19 18 18 16 17 16 15 15 15 15 14 15 15 15 14 14 16 18 18 19 18 17 20 21 21 22 24 28 29 30 33 34 25
18 18 19 19 21 23 25 26 24 22 22 21 21 22 22 22 23 23 23 23 24 23 22 22 22 23 24 25 26 26 28 29 32 35 35 35 37 35
Wind_Direction_500mb
274 273 270 270 271 269 265 256 262 271 272 272 283 269 268 278 267 267 259 266 257 251 243 240 244 246 240 239 247 228 226 244 235 230 231 230 233 229
281 276 271 265 269 269 266 265 258 262 270 268 261 276 269 267 278 272 269 270 259 255 237 250 248 243 244 246 248 244 235 248 242 235 236 234 235 227
285 280 271 267 267 269 263 258 258 259 262 270 269 257 275 257 267 280 276 256 259 262 263 257 247 245 248 250 249 243 236 246 247 243 238 238 237 230
291 288 279 271 272 264 262 262 264 261 266 275 276 268 265 266 277 276 266 262 256 252 258 266 258 242 234 251 244 243 243 245 246 243 236 243 229 216
297 289 276 270 265 264 262 264 262 269 268 259 268 264 258 275 263 262 279 251 258 262 258 251 253 257 254 253 257 256 256 259 243 244 240 227 215 204
302 292 281 267 266 268 262 261 269 275 272 244 274 256 261 266 262 254 265 280 281 267 258 262 251 253 255 257 254 257 258 254 254 247 243 219 206 203
317 310 301 285 268 261 268 269 273 271 272 258 265 247 265 275 261 257 259 259 269 274 285 268 263 267 257 262 258 271 252 253 240 215 207 187 184 185
304 308 301 293 281 268 262 262 267 263 267 266 258 264 263 272 275 255 237 231 219 263 258 252 251 260 245 247 244 226 229 213 199 188 187 183 179 178
335 327 319 303 278 273 263 253 251 261 261 263 267 257 259 259 280 267 238 227 241 228 225 198 188 168 158 164 176 187 181 172 166 154 154 160 164 173
7 353 344 331 307 276 265 260 260 263 259 254 256 261 266 259 275 272 258 236 207 190 187 145 155 141 132 128 130 133 136 137 137 144 152 160 178 195
26 22 10 357 343 302 266 268 276 278 275 258 252 251 249 257 263 261 242 221 185 176 181 164 152 145 144 140 138 142 142 145 152 163 178 187 192 196
31 31 31 26 20 9 359 287 258 255 249 249 249 251 244 246 237 228 238 212 199 172 181 169 163 153 142 151 155 160 160 159 166 175 187 193 193 201
36 35 33 24 24 24 4 326 283 266 254 231 213 204 202 199 196 197 200 206 203 182 183 183 173 170 161 167 170 171 175 181 187 189 196 197 206 212
34 36 36 35 35 44 45 39 32 28 126 143 134 125 131 141 148 155 167 182 185 201 181 185 185 182 174 172 179 190 194 192 194 192 184 192 207 213
30 31 32 38 45 48 56 58 65 80 95 116 116 113 113 117 125 141 147 155 154 143 170 186 193 182 169 163 172 199 207 203 200 196 199 201 224 230
28 29 31 35 43 49 58 64 69 72 83 100 109 111 113 113 119 129 143 149 157 154 162 168 165 193 200 185 173 170 179 188 201 205 211 218 223 232
20 12 19 33 40 48 52 62 66 71 76 82 89 98 103 109 111 109 112 122 151 157 153 157 163 170 171 172 167 150 167 182 173 196 209 220 228 238
1 360 7 18 26 44 52 54 66 75 78 78 87 95 102 110 113 115 108 113 123 130 140 149 155 159 160 159 161 172 183 200 205 205 217 229 240 248
330 331 339 353 8 25 33 44 46 58 72 79 81 91 99 109 111 115 120 128 138 146 152 160 167 177 188 188 196 204 210 213 218 223 232 244 255 260
300 301 298 295 305 319 331 346 5 25 51 73 85 104 127 138 145 151 153 154 162 170 177 186 192 201 211 215 217 224 223 229 235 240 251 259 263 267
292 289 288 289 286 280 279 283 287 280 285 289 289 282 285 285 277 266 253 233 222 223 219 220 227 237 242 242 238 240 241 249 253 258 263 266 270 275
294 290 289 286 282 285 286 281 275 277 275 273 270 266 263 261 264 264 263 261 252 245 245 248 248 251 257 259 257 253 255 262 271 276 271 271 274 271
310 311 309 302 295 288 281 281 279 276 275 270 268 266 265 264 263 262 260 259 260 261 261 260 261 261 262 264 267 270 271 268 265 264 267 268 269 273
Wind_Speed_850mb
59 61 64 72 72 67 66 71 65 65 65 54 57 76 85 70 81 75 73 81 102 105 110 122 113 121 133 142 104 109 91 104 127 113 114 101 106 107
56 60 63 63 67 68 70 67 73 75 80 63 63 47 68 71 53 61 73 88 68 82 89 90 107 108 112 123 123 137 112 118 121 116 130 119 112 115
57 61 61 69 73 72 64 59 62 60 77 75 75 73 50 77 76 62 56 57 61 73 64 84 99 101 114 112 128 129 117 133 130 130 140 128 119 123
55 58 62 61 62 64 60 68 65 66 66 66 60 80 80 69 71 69 60 59 71 70 59 52 61 105 110 107 109 113 117 149 134 115 137 136 129 113
51 53 49 50 53 57 59 59 64 65 68 77 79 64 73 58 68 59 38 57 63 61 68 69 71 74 61 89 86 108 114 109 115 130 142 139 120 114
40 38 38 40 50 57 55 56 60 64 60 74 53 67 50 54 62 79 59 26 37 37 32 34 39 53 63 88 95 104 94 103 112 118 104 120 127 125
29 28 27 34 42 52 48 50 57 48 49 51 44 48 43 39 49 48 55 58 53 30 33 26 30 38 44 49 58 48 84 74 79 81 111 121 116 107
31 33 32 30 33 41 46 47 45 45 50 34 47 49 57 46 43 41 53 40 28 22 16 19 24 30 25 22 26 27 43 55 65 95 125 117 97 69
26 30 32 33 32 34 37 37 36 38 46 55 55 54 60 59 47 45 56 49 47 36 27 17 18 22 25 32 39 47 62 75 85 79 62 50 40 35
28 28 27 26 21 24 29 32 35 38 42 50 53 52 53 48 50 45 58 48 33 33 35 37 43 48 51 52 41 42 56 42 38 35 31 27 27 31
30 27 29 28 22 14 20 27 33 34 34 35 41 44 42 48 48 43 53 53 41 46 45 52 57 56 50 48 45 33 37 36 30 25 24 27 29 29
39 34 36 36 28 21 12 11 22 24 25 27 37 45 50 55 44 38 44 59 54 42 49 52 63 54 32 37 39 36 33 29 24 20 21 24 27 26
47 47 44 39 32 22 14 10 14 15 16 16 18 22 27 28 29 28 37 42 44 28 56 49 66 48 32 50 40 36 29 23 23 24 25 20 15 19
44 44 43 39 33 27 22 18 12 8 4 10 16 21 21 21 21 23 24 29 33 12 52 44 60 49 33 45 41 37 32 27 23 22 20 26 30 28
42 42 39 37 35 32 31 25 18 13 11 13 18 23 22 23 22 23 26 26 19 20 37 33 31 46 29 26 29 24 41 35 28 27 28 28 27 24
33 34 35 34 34 35 33 32 29 25 19 21 25 28 28 27 24 21 27 28 24 29 28 29 27 37 28 22 21 20 32 21 32 30 31 30 30 31
27 26 24 26 28 31 31 32 33 31 28 29 28 30 32 31 32 30 25 20 18 27 34 34 28 30 26 22 19 20 23 23 19 28 29 29 29 30
16 16 17 18 19 22 24 24 24 24 26 25 25 26 28 27 29 27 22 20 25 32 30 30 31 30 26 20 17 17 21 21 21 24 26 27 29 30
13 14 15 12 11 11 12 13 13 14 16 17 15 15 14 15 14 14 16 16 18 19 18 16 17 16 16 17 16 20 21 21 22 23 23 24 26 29
15 14 12 11 11 10 8 6 6 5 5 5 5 4 4 6 7 8 9 9 11 15 17 18 18 17 17 16 16 16 18 20 19 18 20 24 28 36
18 17 16 16 15 13 12 11 11 9 7 6 6 6 7 7 7 7 7 7 8 9 11 14 16 16 17 18 17 17 17 18 21 24 27 30 33 38
23 25 24 22 20 19 18 18 16 17 16 15 15 15 15 14 15 15 15 14 14 16 18 18 19 18 17 20 21 21 22 24 28 29 30 33 34 25
18 18 19 19 21 23 25 26 24 22 22 21 21 22 22 22 23 23 23 23 24 23 22 22 22 23 24 25 26 26 28 29 32 35 35 35 37 35
Wind_Direction_850mb
274 273 270 270 271 269 265 256 262 271 272 272 283 269 268 278 267 267 259 266 257 251 243 240 244 246 240 239 247 228 226 244 235 230 231 230 233 229
281 276 271 265 269 269 266 265 258 262 270 268 261 276 269 267 278 272 269 270 259 255 237 250 248 243 244 246 248 244 235 248 242 235 236 234 235 227
285 280 271 267 267 269 263 258 258 259 262 270 269 257 275 257 267 280 276 256 259 262 263 257 247 245 248 250 249 243 236 246 247 243 238 238 237 230
291 288 279 271 272 264 262 262 264 261 266 275 276 268 265 266 277 276 266 262 256 252 258 266 258 242 234 251 244 243 243 245 246 243 236 243 229 216
297 289 276 270 265 264 262 264 262 269 268 259 268 264 258 275 263 262 279 251 258 262 258 251 253 257 254 253 257 256 256 259 243 244 240 227 215 204
302 292 281 267 266 268 262 261 269 275 272 244 274 256 261 266 262 254 265 280 281 267 258 262 251 253 255 257 254 257 258 254 254 247 243 219 206 203
317 310 301 285 268 261 268 269 273 271 272 258 265 247 265 275 261 257 259 259 269 274 285 268 263 267 257 262 258 271 252 253 240 215 207 187 184 185
304 308 301 293 281 268 262 262 267 263 267 266 258 264 263 272 275 255 237 231 219 263 258 252 251 260 245 247 244 226 229 213 199 188 187 183 179 178
335 327 319 303 278 273 263 253 251 261 261 263 267 257 259 259 280 267 238 227 241 228 225 198 188 168 158 164 176 187 181 172 166 154 154 160 164 173
7 353 344 331 307 276 265 260 260 263 259 254 256 261 266 259 275 272 258 236 207 190 187 145 155 141 132 128 130 133 136 137 137 144 152 160 178 195
26 22 10 357 343 302 266 268 276 278 275 258 252 251 249 257 263 261 242 221 185 176 181 164 152 145 144 140 138 142 142 145 152 163 178 187 192 196
31 31 31 26 20 9 359 287 258 255 249 249 249 251 244 246 237 228 238 212 199 172 181 169 163 153 142 151 155 160 160 159 166 175 187 193 193 201
36 35 33 24 24 24 4 326 283 266 254 231 213 204 202 199 196 197 200 206 203 182 183 183 173 170 161 167 170 171 175 181 187 189 196 197 206 212
34 36 36 35 35 44 45 39 32 28 126 143 134 125 131 141 148 155 167 182 185 201 181 185 185 182 174 172 179 190 194 192 194 192 184 192 207 213
30 31 32 38 45 48 56 58 65 80 95 116 116 113 113 117 125 141 147 155 154 143 170 186 193 182 169 163 172 199 207 203 200 196 199 201 224 230
28 29 31 35 43 49 58 64 69 72 83 100 109 111 113 113 119 129 143 149 157 154 162 168 165 193 200 185 173 170 179 188 201 205 211 218 223 232
20 12 19 33 40 48 52 62 66 71 76 82 89 98 103 109 111 109 112 122 151 157 153 157 163 170 171 172 167 150 167 182 173 196 209 220 228 238
1 360 7 18 26 44 52 54 66 75 78 78 87 95 102 110 113 115 108 113 123 130 140 149 155 159 160 159 161 172 183 200 205 205 217 229 240 248
330 331 339 353 8 25 33 44 46 58 72 79 81 91 99 109 111 115 120 128 138 146 152 160 167 177 188 188 196 204 210 213 218 223 232 244 255 260
300 301 298 295 305 319 331 346 5 25 51 73 85 104 127 138 145 151 153 154 162 170 177 186 192 201 211 215 217 224 223 229 235 240 251 259 263 267
292 289 288 289 286 280 279 283 287 280 285 289 289 282 285 285 277 266 253 233 222 223 219 220 227 237 242 242 238 240 241 249 253 258 263 266 270 275
294 290 289 286 282 285 286 281 275 277 275 273 270 266 263 261 264 264 263 261 252 245 245 248 248 251 257 259 257 253 255 262 271 276 271 271 274 271
310 311 309 302 295 288 281 281 279 276 275 270 268 266 265 264 263 262 260 259 260 261 261 260 261 261 262 264 267 270 271 268 265 264 267 268 269 273